Hourly Data Report for July 12, 2021

MANIWAKI AIRPORT
QUEBEC
Current Station Operator: ECCC - MSC

46°16'29.000" N
75°59'31.000" W
199.70 m
7034482
71721
WMJ

Download Data

Hourly Data (July 2021)
Hourly Data Report for July 12, 2021
TIME
LST
Temp Definition
°C
Dew Point Definition
°C
Rel Hum Definition
%
Precip. Amount Definition
mm

Wind Dir Definition
10's deg

Wind Spd Definition
km/h
Visibility Definition
km
Stn Press Definition
kPa
Hmdx Definition


Wind Chill Definition


Weather Definition


00:00 14.3 13.7 96 0.0 34 3   99.58     LegendNANA
01:00 14.6 14.4 98 0.0 2 3   99.58     LegendNANA
02:00 14.2 14.0 99 0.0 36 3   99.62     LegendNANA
03:00 13.9 13.4 97 0.0 36 5   99.62     LegendNANA
04:00 14.3 13.6 95 0.0 1 5   99.65     LegendNANA
05:00 14.0 13.4 96 0.0 2 3   99.70     LegendNANA
06:00 16.4 15.2 93 0.0 1 6   99.77     LegendNANA
07:00 18.2 15.5 84 0.0 2 8   99.80     LegendNANA
08:00 21.4 17.0 76 0.0 4 7   99.84 27   LegendNANA
09:00 23.5 16.2 64 0.0 7 6   99.84 28   LegendNANA
10:00 24.2 14.7 55 0.0 7 9   99.85 28   LegendNANA
11:00 25.2 14.9 53 0.0 17 5   99.88 29   LegendNANA
12:00 26.4 15.3 50 0.0 8 5   99.89 31   LegendNANA
13:00 26.8 14.8 48 0.0 8 4   99.85 31   LegendNANA
14:00 27.4 14.5 45 0.0 14 8   99.85 31   LegendNANA
15:00 27.1 15.1 48 0.0 13 5   99.84 31   LegendNANA
16:00 27.7 15.0 46 0.0 15 7   99.81 32   LegendNANA
17:00 27.3 14.3 45 0.0 14 8   99.77 31   LegendNANA
18:00 26.9 15.2 49 0.0 13 6   99.77 31   LegendNANA
19:00 23.7 17.9 70 0.0 12 3   99.79 30   LegendNANA
20:00 20.3 17.5 84 0.0 15 2   99.79 26   LegendNANA
21:00 18.4 16.0 86 0.0   0   99.87     LegendNANA
22:00 16.8 15.3 91 0.0 36 3   99.86     LegendNANA
23:00 16.1 15.0 93 0.0 34 2   99.84     LegendNANA

Notes on Data Quality.

Legend

  • E = Estimated
  • M = Missing
  • NA = Not Available*
  • [empty] = Indicates an unobserved value
Date modified: